,,PA_Meas_PMT16A,,PR_Meas_QMR101_102,,RH_Meas_QMH101,,SR_Meas_QMS101,,TA_Meas_QMH101,,GenWind,,GenWind,
time,status,PA,status,PR,status,RH,status,SR,status,TA,status,DirAvg,status,SpdAvg,
2015-12-17, 07:13:04,VALID,918.484,VALID,0,VALID,103.122,VALID,128.07,VALID,18.8658,VALID,125,VALID,0.252734,
2015-12-17, 07:14:04,VALID,918.454,VALID,0,VALID,103.13,VALID,129.037,VALID,18.9257,VALID,125,VALID,0.953906,
2015-12-17, 07:15:04,VALID,918.462,VALID,0,VALID,103.114,VALID,128.392,VALID,18.9243,VALID,119,VALID,1.43945,
2015-12-17, 07:16:04,VALID,918.505,VALID,0,VALID,103.122,VALID,128.929,VALID,18.9633,VALID,127,VALID,1.19687,
2015-12-17, 07:17:04,VALID,918.479,VALID,0,VALID,103.114,VALID,134.516,VALID,19.0023,VALID,128,VALID,0.720703,
2015-12-17, 07:18:04,VALID,918.472,VALID,0,VALID,103.122,VALID,141.285,VALID,19.0998,VALID,122,VALID,0.850781,
2015-12-17, 07:19:04,VALID,918.464,VALID,0,VALID,103.084,VALID,147.839,VALID,19.1193,VALID,131,VALID,1.0707,
2015-12-17, 07:20:04,VALID,918.458,VALID,0,VALID,103.114,VALID,144.401,VALID,19.1388,VALID,117,VALID,1.19062,
2015-12-17, 07:21:04,VALID,918.496,VALID,0,VALID,103.099,VALID,150.418,VALID,19.1763,VALID,135,VALID,0.307422,
2015-12-17, 07:22:04,VALID,918.481,VALID,0,VALID,103.122,VALID,158.583,VALID,19.1193,VALID,145,VALID,1.18945,
2015-12-17, 07:23:04,VALID,918.508,VALID,0,VALID,103.191,VALID,157.401,VALID,19.0398,VALID,137,VALID,1.26563,
2015-12-17, 07:24:04,VALID,918.517,VALID,0,VALID,103.183,VALID,155.79,VALID,19.0998,VALID,121,VALID,1.28086,
2015-12-17, 07:25:04,VALID,918.528,VALID,0,VALID,103.191,VALID,165.352,VALID,19.0788,VALID,135,VALID,1.31328,
2015-12-17, 07:26:04,VALID,918.581,VALID,0,VALID,103.183,VALID,170.617,VALID,19.1583,VALID,133,VALID,1.61875,
2015-12-17, 07:27:04,VALID,918.631,VALID,0,VALID,103.198,VALID,177.708,VALID,19.1583,VALID,154,VALID,0.879297,
2015-12-17, 07:28:04,VALID,918.61,VALID,0,VALID,103.198,VALID,184.476,VALID,19.1958,VALID,153,VALID,0.787109,
2015-12-17, 07:29:04,VALID,918.627,VALID,0,VALID,103.191,VALID,191.138,VALID,19.2543,VALID,151,VALID,0.941016,
2015-12-17, 07:30:04,VALID,918.638,VALID,0,VALID,103.198,VALID,197.047,VALID,19.2543,VALID,151,VALID,1.06055,
2015-12-17, 07:31:04,VALID,918.671,VALID,0,VALID,103.191,VALID,201.022,VALID,19.3128,VALID,134,VALID,1.08359,
2015-12-17, 07:32:04,VALID,918.701,VALID,0,VALID,103.213,VALID,202.741,VALID,19.3323,VALID,148,VALID,1.07031,
2015-12-17, 07:33:04,VALID,918.69,VALID,0,VALID,103.267,VALID,201.56,VALID,19.3338,VALID,145,VALID,1.2332,
2015-12-17, 07:34:04,VALID,918.687,VALID,0,VALID,103.244,VALID,209.188,VALID,19.4298,VALID,147,VALID,0.263281,
2015-12-17, 07:35:04,VALID,918.705,VALID,0,VALID,103.236,VALID,214.13,VALID,19.4883,VALID,141,VALID,1.26367,
2015-12-17, 07:36:04,VALID,918.721,VALID,0,VALID,103.297,VALID,220.039,VALID,19.5288,VALID,147,VALID,0.785937,
2015-12-17, 07:37:04,VALID,918.764,VALID,0,VALID,103.335,VALID,224.659,VALID,19.5663,VALID,126,VALID,1.16172,
2015-12-17, 07:38:04,VALID,918.768,VALID,0,VALID,103.282,VALID,224.982,VALID,19.7223,VALID,143,VALID,0.828516,
2015-12-17, 07:39:04,VALID,918.782,VALID,0,VALID,103.29,VALID,225.519,VALID,19.8393,VALID,127,VALID,0.489844,
2015-12-17, 07:40:04,VALID,918.765,VALID,0,VALID,103.366,VALID,223.907,VALID,19.8588,VALID,157,VALID,1.23164,
2015-12-17, 07:41:04,VALID,918.825,VALID,0,VALID,103.442,VALID,220.039,VALID,19.8978,VALID,159,VALID,0.736719,
2015-12-17, 07:42:04,VALID,918.828,VALID,0,VALID,103.465,VALID,219.61,VALID,19.9548,VALID,138,VALID,0.816797,
2015-12-17, 07:43:04,VALID,918.818,VALID,0,VALID,103.549,VALID,222.511,VALID,20.0148,VALID,156,VALID,0.971094,
2015-12-17, 07:44:04,VALID,918.833,VALID,0,VALID,103.587,VALID,228.205,VALID,20.0733,VALID,160,VALID,0.705078,
2015-12-17, 07:45:04,VALID,918.833,VALID,0,VALID,103.701,VALID,232.395,VALID,20.0928,VALID,151,VALID,0.996875,
2015-12-17, 07:46:04,VALID,918.814,VALID,0,VALID,103.755,VALID,240.991,VALID,20.1708,VALID,132,VALID,1.30977,
2015-12-17, 07:47:04,VALID,918.828,VALID,0,VALID,103.793,VALID,248.189,VALID,20.2293,VALID,154,VALID,0.973047,
2015-12-17, 07:48:04,VALID,918.839,VALID,0,VALID,103.953,VALID,252.487,VALID,20.2293,VALID,148,VALID,1.22148,
2015-12-17, 07:49:04,VALID,918.837,VALID,0,VALID,104,VALID,253.024,VALID,20.2278,VALID,139,VALID,1.17656,
2015-12-17, 07:50:04,VALID,918.846,VALID,0,VALID,104,VALID,256.032,VALID,20.3074,VALID,138,VALID,1.10273,
2015-12-17, 07:51:04,VALID,918.862,VALID,0,VALID,104,VALID,261.834,VALID,20.3238,VALID,136,VALID,0.889453,
2015-12-17, 07:52:04,VALID,918.903,VALID,0,VALID,104,VALID,267.743,VALID,20.5219,VALID,143,VALID,0,
2015-12-17, 07:53:04,VALID,918.893,VALID,0,VALID,104,VALID,270.215,VALID,20.6374,VALID,148,VALID,0,
2015-12-17, 07:54:04,VALID,918.924,VALID,0,VALID,104,VALID,272.471,VALID,20.8145,VALID,147,VALID,0.0210938,
2015-12-17, 07:55:04,VALID,918.919,VALID,0,VALID,104,VALID,274.727,VALID,20.9316,VALID,151,VALID,0.000390625,
2015-12-17, 07:56:04,VALID,918.942,VALID,0,VALID,104,VALID,281.603,VALID,21.0291,VALID,155,VALID,0.357812,
2015-12-17, 07:57:04,VALID,918.939,VALID,0,VALID,104,VALID,284.719,VALID,21.1852,VALID,166,VALID,0.965234,
2015-12-17, 07:58:04,VALID,918.953,VALID,0,VALID,104,VALID,286.116,VALID,21.2437,VALID,158,VALID,0,
2015-12-17, 07:59:04,VALID,918.972,VALID,0,VALID,104,VALID,285.471,VALID,21.3412,VALID,155,VALID,0,
2015-12-17, 08:00:04,VALID,918.964,VALID,0,VALID,103.366,VALID,285.471,VALID,21.4193,VALID,156,VALID,0,
2015-12-17, 08:01:04,VALID,918.954,VALID,0,VALID,99.7067,VALID,293.207,VALID,21.4957,VALID,151,VALID,0,
2015-12-17, 08:02:04,VALID,918.953,VALID,0,VALID,98.83,VALID,259.578,VALID,21.4762,VALID,130,VALID,0,
2015-12-17, 08:03:04,VALID,918.975,VALID,0,VALID,98.8757,VALID,277.628,VALID,21.5363,VALID,137,VALID,0,
2015-12-17, 08:04:04,VALID,918.975,VALID,0,VALID,99.2188,VALID,271.181,VALID,21.6339,VALID,138,VALID,0,
2015-12-17, 08:05:04,VALID,918.973,VALID,0,VALID,98.0219,VALID,243.354,VALID,21.6713,VALID,142,VALID,0,
2015-12-17, 08:06:04,VALID,918.995,VALID,0,VALID,95.7272,VALID,295.033,VALID,21.7688,VALID,130,VALID,0,
2015-12-17, 08:07:04,VALID,918.965,VALID,0,VALID,94.4846,VALID,318.241,VALID,21.8469,VALID,129,VALID,0,
2015-12-17, 08:08:04,VALID,918.99,VALID,0,VALID,95.3766,VALID,326.191,VALID,22.0615,VALID,129,VALID,0,
2015-12-17, 08:09:04,VALID,918.969,VALID,0,VALID,86.48,VALID,321.034,VALID,22.2193,VALID,136,VALID,0,
2015-12-17, 08:10:04,VALID,918.978,VALID,0,VALID,88.2029,VALID,315.232,VALID,22.255,VALID,101,VALID,0,
2015-12-17, 08:11:04,VALID,918.973,VALID,0,VALID,86.1675,VALID,313.836,VALID,22.4518,VALID,141,VALID,0,
2015-12-17, 08:12:04,VALID,918.957,VALID,0,VALID,84.4217,VALID,315.125,VALID,22.5103,VALID,149,VALID,0,
2015-12-17, 08:13:04,VALID,919.007,VALID,0,VALID,84.4598,VALID,319.1,VALID,22.4501,VALID,157,VALID,0,
2015-12-17, 08:14:04,VALID,918.947,VALID,0,VALID,83.9109,VALID,322.323,VALID,22.4696,VALID,141,VALID,0,
2015-12-17, 08:15:04,VALID,918.939,VALID,0,VALID,83.9033,VALID,325.654,VALID,22.5477,VALID,141,VALID,0,
2015-12-17, 08:16:04,VALID,918.979,VALID,0,VALID,85.2603,VALID,330.274,VALID,22.686,VALID,94,VALID,0,
2015-12-17, 08:17:04,VALID,919.006,VALID,0,VALID,83.7356,VALID,337.795,VALID,22.8794,VALID,96,VALID,0,
2015-12-17, 08:18:04,VALID,919.001,VALID,0,VALID,81.7764,VALID,344.994,VALID,23.0551,VALID,137,VALID,0,
2015-12-17, 08:19:04,VALID,919.038,VALID,0,VALID,81.0293,VALID,351.333,VALID,23.1722,VALID,169,VALID,0,
2015-12-17, 08:20:04,VALID,919.009,VALID,0,VALID,80.8692,VALID,355.415,VALID,23.1935,VALID,163,VALID,0,
2015-12-17, 08:21:04,VALID,919.003,VALID,0,VALID,80.3661,VALID,359.606,VALID,23.2911,VALID,163,VALID,0,
2015-12-17, 08:22:04,VALID,919.007,VALID,0,VALID,79.2683,VALID,365.407,VALID,23.3319,VALID,159,VALID,0,
2015-12-17, 08:23:04,VALID,919.023,VALID,0,VALID,77.6979,VALID,371.531,VALID,23.3301,VALID,171,VALID,0,
2015-12-17, 08:24:04,VALID,919.05,VALID,0,VALID,78.4678,VALID,377.011,VALID,23.3691,VALID,169,VALID,0,
2015-12-17, 08:25:04,VALID,919.03,VALID,0,VALID,78.0943,VALID,385.284,VALID,23.4472,VALID,165,VALID,0,
2015-12-17, 08:26:04,VALID,919.037,VALID,0,VALID,78.4526,VALID,391.73,VALID,23.4667,VALID,165,VALID,0,
2015-12-17, 08:27:04,VALID,919.046,VALID,0,VALID,79.0548,VALID,399.789,VALID,23.4863,VALID,169,VALID,0,
2015-12-17, 08:28:04,VALID,919.066,VALID,0,VALID,78.8337,VALID,407.739,VALID,23.504,VALID,169,VALID,0,
2015-12-17, 08:29:04,VALID,919.046,VALID,0,VALID,77.5759,VALID,415.153,VALID,23.6406,VALID,191,VALID,0,
2015-12-17, 08:30:04,VALID,919.058,VALID,0,VALID,78.018,VALID,422.029,VALID,23.7968,VALID,187,VALID,0,
2015-12-17, 08:31:04,VALID,919.079,VALID,0,VALID,76.3638,VALID,428.153,VALID,23.8377,VALID,156,VALID,0,
2015-12-17, 08:32:04,VALID,919.071,VALID,0,VALID,77.3167,VALID,435.781,VALID,23.7968,VALID,183,VALID,0,
2015-12-17, 08:33:04,VALID,919.059,VALID,0,VALID,75.9826,VALID,441.583,VALID,23.9139,VALID,165,VALID,0,
2015-12-17, 08:34:04,VALID,919.065,VALID,0,VALID,76.1046,VALID,446.525,VALID,23.953,VALID,165,VALID,0,
2015-12-17, 08:35:04,VALID,919.056,VALID,0,VALID,76.2265,VALID,449.319,VALID,24.0115,VALID,171,VALID,0.372266,
2015-12-17, 08:36:04,VALID,919.055,VALID,0,VALID,76.3714,VALID,452.435,VALID,24.0683,VALID,164,VALID,1.07148,
2015-12-17, 08:37:04,VALID,919.057,VALID,0,VALID,77.5683,VALID,456.303,VALID,24.0311,VALID,170,VALID,0,
2015-12-17, 08:38:04,VALID,919.056,VALID,0,VALID,77.7817,VALID,459.203,VALID,23.9316,VALID,131,VALID,0.427344,
2015-12-17, 08:39:04,VALID,919.102,VALID,0,VALID,78.4907,VALID,460.493,VALID,24.0097,VALID,173,VALID,0,
2015-12-17, 08:40:04,VALID,919.07,VALID,0,VALID,78.4602,VALID,463.501,VALID,24.1659,VALID,168,VALID,0,
2015-12-17, 08:41:04,VALID,919.081,VALID,0,VALID,77.2709,VALID,466.295,VALID,24.4392,VALID,168,VALID,0,
2015-12-17, 08:42:04,VALID,919.097,VALID,0,VALID,75.0449,VALID,470.162,VALID,24.4392,VALID,178,VALID,0,
2015-12-17, 08:43:04,VALID,919.104,VALID,0,VALID,75.1821,VALID,478.113,VALID,24.5368,VALID,194,VALID,0,
2015-12-17, 08:44:04,VALID,919.119,VALID,0,VALID,74.1149,VALID,482.733,VALID,24.5973,VALID,146,VALID,0,
2015-12-17, 08:45:04,VALID,919.099,VALID,0,VALID,74.4045,VALID,487.568,VALID,24.6363,VALID,93,VALID,0,
2015-12-17, 08:46:04,VALID,919.073,VALID,0,VALID,73.8404,VALID,490.147,VALID,24.6949,VALID,42,VALID,0,
2015-12-17, 08:47:04,VALID,919.082,VALID,0,VALID,72.918,VALID,485.956,VALID,24.7926,VALID,49,VALID,0,
2015-12-17, 08:48:04,VALID,919.074,VALID,0,VALID,73.2991,VALID,492.94,VALID,24.8688,VALID,44,VALID,0,
2015-12-17, 08:49:04,VALID,919.054,VALID,0,VALID,72.4225,VALID,495.196,VALID,25.0659,VALID,26,VALID,0.0289063,
2015-12-17, 08:50:04,VALID,919.102,VALID,0,VALID,71.3399,VALID,497.023,VALID,25.1422,VALID,39,VALID,0,
2015-12-17, 08:51:04,VALID,919.085,VALID,0,VALID,70.6233,VALID,496.056,VALID,25.0659,VALID,27,VALID,0,
2015-12-17, 08:52:04,VALID,919.069,VALID,0,VALID,71.2789,VALID,498.742,VALID,25.0659,VALID,255,VALID,0,
2015-12-17, 08:53:04,VALID,919.06,VALID,0,VALID,70.7987,VALID,493.477,VALID,24.9664,VALID,250,VALID,0,
2015-12-17, 08:54:04,VALID,919.081,VALID,0,VALID,70.4022,VALID,483.163,VALID,25.064,VALID,57,VALID,0,
2015-12-17, 08:55:04,VALID,919.06,VALID,0,VALID,71.3704,VALID,466.187,VALID,25.0836,VALID,55,VALID,0,
2015-12-17, 08:56:04,VALID,919.053,VALID,0,VALID,70.7377,VALID,440.509,VALID,25.1031,VALID,52,VALID,0,
2015-12-17, 08:57:04,VALID,919.072,VALID,0,VALID,66.034,VALID,406.557,VALID,25.2398,VALID,52,VALID,0,
2015-12-17, 08:58:04,VALID,919.108,VALID,0,VALID,68.3668,VALID,363.366,VALID,25.4156,VALID,143,VALID,0,
2015-12-17, 08:59:04,VALID,919.047,VALID,0,VALID,68.9614,VALID,316.199,VALID,25.5132,VALID,150,VALID,0,
2015-12-17, 09:00:04,VALID,919.114,VALID,0,VALID,66.9488,VALID,266.561,VALID,25.6109,VALID,154,VALID,0,
2015-12-17, 09:01:04,VALID,919.104,VALID,0,VALID,65.2717,VALID,215.849,VALID,25.6304,VALID,123,VALID,0,
2015-12-17, 09:02:04,VALID,919.109,VALID,0,VALID,65.4013,VALID,174.592,VALID,25.689,VALID,130,VALID,0,
2015-12-17, 09:03:04,VALID,919.098,VALID,0,VALID,63.4039,VALID,141.285,VALID,25.6694,VALID,155,VALID,0,
2015-12-17, 09:04:04,VALID,919.091,VALID,0,VALID,63.7546,VALID,117.326,VALID,25.728,VALID,155,VALID,0,
2015-12-17, 09:05:04,VALID,919.114,VALID,0,VALID,64.1129,VALID,101.747,VALID,25.8433,VALID,155,VALID,0,
2015-12-17, 09:06:04,VALID,919.121,VALID,0,VALID,62.2528,VALID,93.4738,VALID,25.8628,VALID,155,VALID,0,
2015-12-17, 09:07:04,VALID,919.106,VALID,0,VALID,66.5219,VALID,89.0687,VALID,25.8042,VALID,118,VALID,0,
2015-12-17, 09:08:04,VALID,919.131,VALID,0,VALID,63.6174,VALID,87.4571,VALID,25.9038,VALID,142,VALID,0,
2015-12-17, 09:09:04,VALID,919.145,VALID,0,VALID,65.1726,VALID,86.5976,VALID,25.8237,VALID,147,VALID,0,
2015-12-17, 09:10:04,VALID,919.149,VALID,0,VALID,64.5856,VALID,86.0604,VALID,25.9019,VALID,139,VALID,0,
2015-12-17, 09:11:04,VALID,919.147,VALID,0,VALID,62.9161,VALID,85.6306,VALID,25.8823,VALID,155,VALID,0,
2015-12-17, 09:12:04,VALID,919.121,VALID,0,VALID,62.6569,VALID,85.0934,VALID,26.0972,VALID,155,VALID,0,
2015-12-17, 09:13:04,VALID,919.136,VALID,0,VALID,62.634,VALID,84.1264,VALID,26.4097,VALID,154,VALID,0,
2015-12-17, 09:14:04,VALID,919.15,VALID,0,VALID,61.8183,VALID,83.1595,VALID,26.4097,VALID,154,VALID,0,
2015-12-17, 09:15:04,VALID,919.141,VALID,0,VALID,62.2376,VALID,82.085,VALID,26.1948,VALID,154,VALID,0,
2015-12-17, 09:16:04,VALID,919.131,VALID,0,VALID,63.7089,VALID,81.333,VALID,26.2144,VALID,141,VALID,0,
2015-12-17, 09:17:04,VALID,919.134,VALID,0,VALID,64.2959,VALID,80.4734,VALID,26.3531,VALID,182,VALID,0,
2015-12-17, 09:18:04,VALID,919.161,VALID,0,VALID,61.4676,VALID,79.9362,VALID,26.275,VALID,227,VALID,0,
2015-12-17, 09:19:04,VALID,919.172,VALID,0,VALID,64.1739,VALID,79.7213,VALID,26.0015,VALID,227,VALID,0,
2015-12-17, 09:20:04,VALID,919.173,VALID,0,VALID,64.4026,VALID,79.5065,VALID,25.8843,VALID,227,VALID,0.009375,
2015-12-17, 09:21:04,VALID,919.201,VALID,0,VALID,61.8793,VALID,79.6139,VALID,25.6675,VALID,245,VALID,0,
2015-12-17, 09:22:04,VALID,919.204,VALID,0,VALID,63.6174,VALID,80.4734,VALID,25.5503,VALID,245,VALID,0,
2015-12-17, 09:23:04,VALID,919.227,VALID,0,VALID,63.3125,VALID,83.052,VALID,25.4722,VALID,245,VALID,0,
2015-12-17, 09:24:04,VALID,919.198,VALID,0,VALID,62.6569,VALID,92.3994,VALID,25.5913,VALID,245,VALID,0,
2015-12-17, 09:25:04,VALID,919.208,VALID,0,VALID,63.9757,VALID,117.111,VALID,25.6089,VALID,304,VALID,0,
2015-12-17, 09:26:04,VALID,919.203,VALID,0,VALID,62.2223,VALID,155.575,VALID,25.7085,VALID,254,VALID,0,
2015-12-17, 09:27:04,VALID,919.209,VALID,0,VALID,61.1322,VALID,214.023,VALID,25.7066,VALID,254,VALID,0,
2015-12-17, 09:28:04,VALID,919.213,VALID,0,VALID,60.5223,VALID,302.554,VALID,25.9409,VALID,255,VALID,0,
2015-12-17, 09:29:04,VALID,919.178,VALID,0,VALID,60.9721,VALID,222.296,VALID,26.2534,VALID,317,VALID,0,
2015-12-17, 09:30:04,VALID,919.187,VALID,0,VALID,59.8972,VALID,248.404,VALID,26.4683,VALID,286,VALID,0,
2015-12-17, 09:31:04,VALID,919.177,VALID,0,VALID,57.6864,VALID,490.899,VALID,26.4878,VALID,289,VALID,0,
2015-12-17, 09:32:04,VALID,919.196,VALID,0,VALID,53.7375,VALID,602.315,VALID,26.3316,VALID,283,VALID,0,
2015-12-17, 09:33:04,VALID,919.209,VALID,0,VALID,57.4272,VALID,626.597,VALID,26.3316,VALID,283,VALID,0,
2015-12-17, 09:34:04,VALID,919.191,VALID,0,VALID,56.8783,VALID,608.117,VALID,26.3491,VALID,288,VALID,0,
2015-12-17, 09:35:04,VALID,919.173,VALID,0,VALID,59.0434,VALID,295.785,VALID,26.3511,VALID,285,VALID,0,
2015-12-17, 09:36:04,VALID,919.161,VALID,0,VALID,57.5187,VALID,178.352,VALID,26.1948,VALID,283,VALID,0,
2015-12-17, 09:37:04,VALID,919.155,VALID,0,VALID,58.9976,VALID,199.626,VALID,26.0171,VALID,283,VALID,0,
2015-12-17, 09:38:04,VALID,919.176,VALID,0,VALID,58.868,VALID,695.467,VALID,25.9585,VALID,283,VALID,0,
2015-12-17, 09:39:04,VALID,919.187,VALID,0,VALID,55.7119,VALID,335.646,VALID,26.0972,VALID,283,VALID,0,
2015-12-17, 09:40:04,VALID,919.183,VALID,0,VALID,55.7882,VALID,208.543,VALID,25.98,VALID,283,VALID,0,
2015-12-17, 09:41:04,VALID,919.177,VALID,0,VALID,59.2797,VALID,153.641,VALID,25.8999,VALID,283,VALID,0,
2015-12-17, 09:42:04,VALID,919.187,VALID,0,VALID,55.5976,VALID,168.79,VALID,25.7437,VALID,283,VALID,0,
2015-12-17, 09:43:04,VALID,919.154,VALID,0,VALID,54.5379,VALID,720.608,VALID,25.6675,VALID,283,VALID,0,
2015-12-17, 09:44:04,VALID,919.15,VALID,0,VALID,57.2823,VALID,679.995,VALID,25.7261,VALID,283,VALID,0,
2015-12-17, 09:45:04,VALID,919.126,VALID,0,VALID,56.8936,VALID,624.555,VALID,25.8237,VALID,271,VALID,0,
2015-12-17, 09:46:04,VALID,919.108,VALID,0,VALID,55.3841,VALID,683.111,VALID,25.8823,VALID,271,VALID,0,
2015-12-17, 09:47:04,VALID,919.114,VALID,0,VALID,55.7272,VALID,704.384,VALID,26.1362,VALID,271,VALID,0,
2015-12-17, 09:48:04,VALID,919.091,VALID,0,VALID,55.0792,VALID,703.954,VALID,26.271,VALID,271,VALID,0,
2015-12-17, 09:49:04,VALID,919.081,VALID,0,VALID,51.2598,VALID,695.359,VALID,26.4097,VALID,271,VALID,0,
2015-12-17, 09:50:04,VALID,919.055,VALID,0,VALID,53.9967,VALID,685.26,VALID,26.3882,VALID,269,VALID,0,
2015-12-17, 09:51:04,VALID,919.053,VALID,0,VALID,54.7285,VALID,626.06,VALID,26.5269,VALID,247,VALID,0,
2015-12-17, 09:52:04,VALID,919.047,VALID,0,VALID,54.6523,VALID,664.738,VALID,26.8004,VALID,280,VALID,0,
2015-12-17, 09:53:04,VALID,919.061,VALID,0,VALID,54.8352,VALID,634.762,VALID,26.6636,VALID,269,VALID,0,
2015-12-17, 09:54:04,VALID,919.03,VALID,0,VALID,55.2698,VALID,619.506,VALID,26.5054,VALID,252,VALID,0,
2015-12-17, 09:55:04,VALID,919.072,VALID,0,VALID,53.8823,VALID,670.648,VALID,26.312,VALID,250,VALID,0,
2015-12-17, 09:56:05,VALID,919.029,VALID,0,VALID,56.8783,VALID,607.365,VALID,26.2905,VALID,260,VALID,0,
2015-12-17, 09:57:04,VALID,919.031,VALID,0,VALID,56.4895,VALID,425.574,VALID,26.273,VALID,246,VALID,0.391406,
2015-12-17, 09:58:04,VALID,919.056,VALID,0,VALID,56.8783,VALID,189.311,VALID,26.2925,VALID,234,VALID,0,
2015-12-17, 09:59:04,VALID,919.007,VALID,0,VALID,54.7971,VALID,495.411,VALID,26.312,VALID,242,VALID,0,
2015-12-17, 10:00:04,VALID,919.013,VALID,0,VALID,53.2572,VALID,174.807,VALID,26.2144,VALID,253,VALID,0.0972656,
2015-12-17, 10:01:04,VALID,919.001,VALID,0,VALID,54.2254,VALID,579.323,VALID,25.9389,VALID,251,VALID,0,
2015-12-17, 10:02:04,VALID,918.977,VALID,0,VALID,55.6814,VALID,487.461,VALID,25.8218,VALID,248,VALID,0,
2015-12-17, 10:03:04,VALID,918.974,VALID,0,VALID,57.1985,VALID,317.918,VALID,25.8823,VALID,251,VALID,0,
2015-12-17, 10:04:04,VALID,918.959,VALID,0,VALID,56.5276,VALID,189.741,VALID,25.9019,VALID,248,VALID,0,
2015-12-17, 10:05:04,VALID,918.956,VALID,0,VALID,57.8389,VALID,153.426,VALID,25.8413,VALID,248,VALID,0,
2015-12-17, 10:06:04,VALID,918.974,VALID,0,VALID,57.2214,VALID,270.107,VALID,25.7456,VALID,249,VALID,0,
2015-12-17, 10:07:04,VALID,918.943,VALID,0,VALID,57.4729,VALID,417.624,VALID,25.7046,VALID,248,VALID,0,
2015-12-17, 10:08:04,VALID,918.964,VALID,0,VALID,59.4093,VALID,496.378,VALID,25.7241,VALID,248,VALID,0,
2015-12-17, 10:09:04,VALID,918.946,VALID,0,VALID,57.4196,VALID,431.054,VALID,25.8042,VALID,248,VALID,0,
2015-12-17, 10:10:04,VALID,918.938,VALID,0,VALID,56.5734,VALID,361.217,VALID,25.8022,VALID,248,VALID,0,
2015-12-17, 10:11:04,VALID,918.96,VALID,0,VALID,59.8972,VALID,437.93,VALID,25.7827,VALID,248,VALID,0,
2015-12-17, 10:12:04,VALID,918.94,VALID,0,VALID,58.3115,VALID,495.841,VALID,25.8608,VALID,248,VALID,0,
2015-12-17, 10:13:04,VALID,918.927,VALID,0,VALID,57.8389,VALID,315.984,VALID,25.9604,VALID,248,VALID,0,
2015-12-17, 10:14:04,VALID,918.91,VALID,0,VALID,58.4792,VALID,572.339,VALID,25.9389,VALID,248,VALID,0,
2015-12-17, 10:15:04,VALID,918.904,VALID,0,VALID,56.3904,VALID,631.539,VALID,25.9995,VALID,248,VALID,0,
2015-12-17, 10:16:04,VALID,918.861,VALID,0,VALID,56.985,VALID,580.719,VALID,26.1167,VALID,249,VALID,0,
2015-12-17, 10:17:04,VALID,918.893,VALID,0,VALID,55.2316,VALID,433.74,VALID,26.1948,VALID,275,VALID,0,
2015-12-17, 10:18:04,VALID,918.869,VALID,0,VALID,57.3586,VALID,388.507,VALID,26.2319,VALID,266,VALID,0,
2015-12-17, 10:19:04,VALID,918.891,VALID,0,VALID,56.4743,VALID,364.548,VALID,26.31,VALID,263,VALID,0,
2015-12-17, 10:20:04,VALID,918.914,VALID,0,VALID,56.3828,VALID,364.87,VALID,26.3491,VALID,263,VALID,0,
2015-12-17, 10:21:04,VALID,918.893,VALID,0,VALID,55.3994,VALID,375.829,VALID,26.2905,VALID,263,VALID,0,
2015-12-17, 10:22:04,VALID,918.899,VALID,0,VALID,56.3218,VALID,376.151,VALID,0,0,0,0,0,
